WHITEHORSE, YK current weather conditions

sailwx.info

Wind from 190 at 3 knots

Air temperature -12.0° C
Visibility: greater than 8.7 NM
Dewpoint -14.0° C

Last reported at 2014-Dec-21 07:54 UTC.
Time now 2014-Dec-21 09:13 UTC

Location: N 60°43' W 135°04'.
View on Google Maps.

See reports from other nearby stations

  
Tides and Currents Weather Stations Pressure Air Temp Water Temp Dewpoint Dewpoint Depression Visibility Wind Speed Wind Dir Waves Ship Positions
date/time (UTC)wind fromknots sea level pressurealtimeterstation pressurevisibilityair tempwater tempwave heightnotes
2014-Dec-21 08:00 190 2 8.7-12.0
2014-Dec-21 07:54 190 3 8.7-12.0
2014-Dec-21 07:37 170 5 8.7-12.0 Light snow.
2014-Dec-21 07:00 150 5 8.7-12.0
2014-Dec-21 06:35 160 4 8.7-11.0 Light snow.
2014-Dec-21 06:00 160 5 8.7-12.0 Light snow.
2014-Dec-21 05:10 7.0-11.0 Light snow.
2014-Dec-21 05:00 4.3-12.0 Light snow. Mist.
2014-Dec-21 04:00 030 2 13.0-12.0 Light snow.
2014-Dec-21 03:00 13.0-12.0 Light snow.
2014-Dec-21 02:00 360 2 13.0-12.0 Light snow.
2014-Dec-21 01:00 010 2 34.8-12.0
2014-Dec-21 00:00 360 2 34.8-13.0
2014-Dec-20 23:00 350 2 34.8-13.0
2014-Dec-20 22:00 360 4 34.8-14.0
2014-Dec-20 21:29 360 4 34.8-14.0
2014-Dec-20 21:00 34.8-14.0 Light snow.
2014-Dec-20 20:00 080 3 34.8-14.0
2014-Dec-20 19:23 34.8-15.0
2014-Dec-20 19:00 13.0-15.0 Light snow.
2014-Dec-20 18:50 13.0-15.0 Light snow.
2014-Dec-20 18:00 330 4 13.0-15.0
2014-Dec-20 17:00 350 3 13.0-15.0
2014-Dec-20 16:00 13.0-15.0
2014-Dec-20 15:00 010 4 13.0-15.0
2014-Dec-20 14:00 010 3 13.0-14.0
2014-Dec-20 13:00 360 2 13.0-13.0
2014-Dec-20 12:00 020 5 13.0-14.0
2014-Dec-20 11:00 070 2 13.0-13.0
2014-Dec-20 10:00 150 5 13.0-13.0
2014-Dec-20 09:00 170 7 13.0-12.0
2014-Dec-20 08:00 170 5 13.0-11.0
2014-Dec-20 07:00 170 6 13.0-12.0
2014-Dec-20 06:00 180 10 13.0-11.0
2014-Dec-20 05:00 160 8 13.0-11.0
2014-Dec-20 04:00 180 10 gusting 16 13.0-10.0 Low drifting snow.
2014-Dec-20 03:00 180 13 13.0-11.0 Low drifting snow.
2014-Dec-20 02:00 180 13 13.0-11.0
2014-Dec-20 01:00 180 8 34.8-10.0
2014-Dec-20 00:00 210 5 34.8-10.0
2014-Dec-19 23:00 190 4 34.8-10.0
2014-Dec-19 22:00 130 2 34.8-11.0
2014-Dec-19 21:00 170 5 34.8-12.0
2014-Dec-19 20:00 170 7 34.8-13.0
2014-Dec-19 19:00 150 5 34.8-14.0
2014-Dec-19 18:00 170 6 34.8-14.0
2014-Dec-19 17:00 170 4 34.8-14.0
2014-Dec-19 16:00 8.7-13.0 Light snow.
2014-Dec-19 15:00 4.3-13.0 Light snow.
2014-Dec-19 14:00 010 2 2.6-13.0 Light snow.
2014-Dec-19 13:00 2.6-14.0 Light snow.
2014-Dec-19 12:00 320 5 2.6-14.0 Light snow.
2014-Dec-19 11:00 340 3 2.6-14.0 Light snow.
2014-Dec-19 10:00 7.0-14.0 Light snow.
2014-Dec-19 09:29 350 6 7.0-15.0 Light snow.
2014-Dec-19 09:00 13.0-14.0